Regional Weather Roundup
Issued by NWS

Home | Current Version | Previous Version | Text Only | Print | Product List | Glossary Off
Versions: 1 2 3 4 5 6 7 8 9 10 11 12 13 14 15 16 17 18 19 20 21 22 23 24 25 26 27 28 29 30 31 32 33 34 35 36 37 38 39 40 41 42 43 44 45 46 47 48 49 50

000
ASUS43 KLOT 032121
RWRIL

ILLINOIS REGIONAL WEATHER ROUNDUP
NATIONAL WEATHER SERVICE CHICAGO/ROMEOVILLE IL
400 PM CDT FRI JUL 03 2015

NOTE: "FAIR" INDICATES FEW OR NO CLOUDS BELOW 12,000 FEET WITH NO
SIGNIFICANT WEATHER AND/OR OBSTRUCTIONS TO VISIBILITY.

* THESE STATIONS ARE NOT UNDER NWS QUALITY CONTROL. THEY ALSO MAY NOT
  REPORT WEATHER SUCH AS PRECIPITATION OR FOG.

ILZ001-002-007-009-015-016-024-032200-
NORTHWEST ILLINOIS

CITY           SKY/WX    TMP DP  RH WIND       PRES   REMARKS
MOLINE         SUNNY     79  58  48 N3        29.94F HX  80
STERLING*      SUNNY     79  57  47 NW3       29.94F HX  80
SAVANNA*       SUNNY     76  49  39 CALM      29.95F
$$

ILZ003-004-008-010-011-017-018-032200-
NORTH CENTRAL ILLINOIS

CITY           SKY/WX    TMP DP  RH WIND       PRES   REMARKS
ROCKFORD       MOSUNNY   77  55  46 S6        29.95F
FREEPORT*      SUNNY     75  56  52 SW5       29.96F
ROCHELLE*      PTSUNNY   76  57  51 CALM      29.95S
DE KALB*       MOSUNNY   73  55  54 CALM      29.95F
PERU*          SUNNY     76  52  42 NW5       29.94S
$$

ILZ005-006-012>014-019>023-032200-
NORTHEAST ILLINOIS

CITY           SKY/WX    TMP DP  RH WIND       PRES   REMARKS
CHICAGO-OHARE  PTSUNNY   76  54  46 NE7       29.93F
CHICAGO-MIDWAY PTSUNNY   76  54  46 E8        29.93F
AURORA         SUNNY     77  55  46 VRB3      29.94F
LANSING*       MOSUNNY   74  52  47 NE8       29.94S
JOLIET*        MOSUNNY   78  56  46 CALM      29.93F
WAUKEGAN       SUNNY     70  54  56 E8        29.94F
DUPAGE AIRPORT MOSUNNY   78  56  46 NW5       29.93F
KANKAKEE*      MOSUNNY   76  56  50 NE5       29.93F
WHEELING       SUNNY     75  53  46 NE7       29.95F
MORRIS*        SUNNY     76  53  44 CALM      29.92F
ROMEOVILLE*    SUNNY     77  53  43 CALM      29.93S
NORTHERLY ISL    N/A     66  58  75 N7          N/A
$$

LMZ740>746-032200-
SOUTHERN LAKE MICHIGAN

STATION/POSITION SKY/WX   TEMP    WIND        PRES    VSBY  WAVE
                          AIR SEA DIR/SP/G                  HT/PER
                          (F)     (DEG/KT/KT) (MB)    (MI)  (FT/S)
HARRISON CRIB              62      40/  7/  8   N/A
BURNHAM HARBOR             66      10/  5/  8   N/A
CALUMET HARBOR             68     350/  6/  8   N/A
BURNS HARBOR               64      10/ 10/ 11 1014.9F
MICHIGAN CITY              63      10/  4/  4   N/A
MICHIGAN CITY 6N           64 65   20/  6/  8   N/A           1/ 3
ST. JOSEPH                 64 64                N/A           1
$$

ILZ025>027-034>036-040-047-049-050-058-095>099-032200-
WEST-CENTRAL ILLINOIS

CITY           SKY/WX    TMP DP  RH WIND       PRES   REMARKS
QUINCY         MOSUNNY   79  60  52 N8        29.93F HX  80
GALESBURG*     MOSUNNY   78  59  51 N3        29.94S
MACOMB*        MOSUNNY   77  62  58 N3        29.95F
JACKSONVILLE*  MOSUNNY   80  66  62 N6        29.92F HX  83
PITTSFIELD*    MOSUNNY   79  62  56 N3        29.94S HX  80
$$

ILZ028>032-037-038-041>044-048-051>054-059>061-032200-
CENTRAL ILLINOIS

CITY           SKY/WX    TMP DP  RH WIND       PRES   REMARKS
PONTIAC        SUNNY     78  60  52 NE7       29.94F HX  80
BLOOMINGTON    MOSUNNY   78  63  60 NE7       29.94F HX  80
DECATUR        PTSUNNY   77  66  68 NE9       29.91F
PEORIA         MOSUNNY   82  61  48 VRB7      29.93F HX  83
LACON*         SUNNY     77  57  50 N5        29.93S
LINCOLN*       MOSUNNY   79  62  55 E6        29.92S HX  80
SPRINGFIELD    MOSUNNY   81  65  58 NE5       29.92S HX  83
TAYLORVILLE    PTSUNNY   75  68  78 N9        29.92S
$$

ILZ033-039-045-046-055>057-062-063-032200-
EAST-CENTRAL ILLINOIS

CITY           SKY/WX    TMP DP  RH WIND       PRES   REMARKS
CHAMPAIGN      LGT RAIN  74  64  71 NE9       29.92F
DANVILLE*      PTSUNNY   74  64  71 N8        29.89S
RANTOUL*       CLOUDY    76  62  61 NE9       29.93S
MATTOON        PTSUNNY   77  66  68 N13       29.88F
PARIS*         PTSUNNY   78  67  68 N9        29.90F HX  80
$$

ILZ079-100>102-032200-
SOUTHWEST ILLINOIS

CITY           SKY/WX    TMP DP  RH WIND       PRES   REMARKS
ALTON          MOSUNNY   79  73  83 N8        29.90F HX  82
BELLEVILLE     MOSUNNY   80  70  70 VRB5      29.87F HX  84
CAHOKIA*       MOSUNNY   83  65  54 N6        29.89S HX  85
SPARTA*        SUNNY     81  65  58 N6        29.89F HX  83
$$

ILZ064>066-069>071-074>076-080>082-084>086-088>090-092>094-032200-
SOUTH-CENTRAL ILLINOIS

CITY           SKY/WX    TMP DP  RH WIND       PRES   REMARKS
CARBONDALE     MOSUNNY   83  67  58 N6        29.86F HX  85
CAIRO*         PTSUNNY   75  72  90 W3        29.85F
EFFINGHAM*     MOSUNNY   79  64  60 N6        29.90S HX  81
MARION         MOSUNNY   82  68  61 NW9       29.87F HX  85
MT. VERNON     PTSUNNY   82  66  57 CALM      29.86F HX  85
CENTRALIA*     MOSUNNY   80  66  63 N6        29.87F HX  82
SALEM*         MOSUNNY   81  68  64 N9        29.88S HX  84
METROPOLIS*    PTSUNNY   81  73  76 W5        29.86F HX  85
$$

ILZ067-068-072-073-078-083-087-091-032200-
SOUTHEAST ILLINOIS

CITY           SKY/WX    TMP DP  RH WIND       PRES   REMARKS
LAWRENCEVILLE  MOSUNNY   79  68  69 NE8       29.86F HX  81
FLORA*         CLOUDY    70  62  76 S6        29.89R
FAIRFIELD*     PTSUNNY   80  68  67 N7        29.85S HX  82
HARRISBURG*    MOSUNNY   83  68  60 W8        29.86F HX  85
ROBINSON*      PTSUNNY   79  67  67 N10       29.87S HX  81
CARMI*         MOSUNNY   82  64  53 NW9       29.84F HX  83
$$

ABBREVIATIONS USED IN REMARKS
   TC - TEMPERATURE IN CELSIUS
  WCI - WIND CHILL INDEX
   HX - HEAT INDEX
  VSB - VISIBILITY
$$




USA.gov is the U.S. government's official web portal to all federal, state and local government web resources and services.